Voltar ao catálogo

STARLINK-3292

AtivoComunicaçõesVLEO
NORAD 50174·PAYLOAD·🇺🇸 United States

Lançado Dec 18, 2021 de Vandenberg Space Force Base

Loading…

Próximas Passagens (próximas 24 horas)

TLE

AtualizadoSource: CelesTrak SupGP

Época: Sep 14, 2026, 21:57 UTC

1 50174C 21125U   26257.91506944  .00013242  00000+0  39130-3 0  2575
2 50174  53.1577  99.6652 0001216  77.5254  74.2930 15.34379284    16

Acompanhe STARLINK-3292 em tempo real com AllMySat

Download on the App Store